Content
SEND FEEDBACK

Daily
Averages
Monthly
Summary
United States of America

BRULE, WISCONSIN


Home > North America > United States > Wisconsin
Elevation: 990 feet     Latitude: 46 32N     Longitude: 091 35W

WEATHER
 
SELECT A DAY
Number of Records: 427,929;   Date Range: 7/1/96 - 9/16/14
 
SHARE

PRINT THIS DATA

[ ← Previous Day ]
WEATHER ALMANAC - JANUARY 31, 2013
[ Next Day → ]
[ °C ]   °F
Weather ElementAverageHighLow
Temperature5.5 °F8.6 °F (12:34 am)-5.8 °F (11:13 pm)
Dewpoint-4.7 °F1.4 °F (1:13 am)-16.6 °F (11:54 pm)
Humidity63.3 %73 % (1:13 am)52 % (2:53 pm)
Barometer29.93 in30.20 in (11:54 pm)29.70 in (12:34 am)
Wind Speed14.1 mph19.6 mph (3:33 pm)
Wind Gust25.3 mph (7:13 am)
Weather ElementAverage
Visibility9.4 mi
Wind DirectionWNW (298.5 °)

Weather ElementTotal
Precipitation---
Heating Degree Days63.6 (Base 65)
Averaged from 68 records on January 31, 2013
WEATHER CONDITIONS BREAKOUT
WIND DIRECTION BREAKOUT
WEATHER BY HOUR - JANUARY 31, 2013
[ °C ]   °F
Local TimeTemperatureDewpointHumidityBarometerVisibilityWind DirectionWind SpeedGust SpeedPrecipitationEventsConditions
12:34 AM8.6 °F-0.4 °F67 %29.70 in10.0 miNW (310°)10.4 mphSnowLight Snow
12:54 AM8.6 °F-0.4 °F67 %29.70 in7.0 miNW (310°)9.2 mphSnowLight Snow
1:13 AM8.6 °F1.4 °F73 %29.70 in10.0 miNW (320°)11.5 mphOvercast
1:34 AM8.6 °F-0.4 °F67 %29.71 in10.0 miNW (310°)12.7 mphOvercast
1:54 AM8.6 °F1.4 °F73 %29.71 in7.0 miNW (310°)11.5 mphSnowLight Snow
2:13 AM8.6 °F-0.4 °F67 %29.72 in10.0 miWNW (300°)13.8 mph18.4 mphOvercast
2:34 AM8.6 °F-0.4 °F67 %29.73 in10.0 miNW (320°)10.4 mphOvercast
2:53 AM8.6 °F-0.4 °F67 %29.73 in10.0 miNW (320°)11.5 mph18.4 mphOvercast
3:14 AM8.6 °F-0.4 °F67 %29.73 in10.0 miNW (320°)9.2 mph18.4 mphOvercast
3:33 AM8.6 °F-0.4 °F67 %29.73 in10.0 miWNW (300°)12.7 mph18.4 mphOvercast
3:53 AM8.6 °F-0.4 °F67 %29.74 in10.0 miNW (310°)11.5 mphOvercast
4:13 AM8.6 °F-0.4 °F67 %29.74 in5.0 miNW (310°)9.2 mphSnowLight Snow
4:33 AM8.6 °F-0.4 °F67 %29.75 in5.0 miNW (320°)9.2 mphSnowLight Snow
4:54 AM8.6 °F-0.4 °F67 %29.75 in7.0 miWNW (300°)10.4 mph17.3 mphOvercast
5:14 AM8.6 °F-0.4 °F67 %29.76 in5.0 miWNW (290°)10.4 mph16.1 mphSnowLight Snow
5:33 AM6.8 °F-0.4 °F72 %29.76 in7.0 miNW (310°)10.4 mphSnowLight Snow
5:54 AM6.8 °F-2.2 °F67 %29.76 in10.0 miNW (310°)12.7 mphOvercast
6:14 AM6.8 °F-2.2 °F67 %29.77 in10.0 miNW (310°)12.7 mphOvercast
6:33 AM6.8 °F-2.2 °F67 %29.78 in10.0 miNW (310°)13.8 mphOvercast
6:54 AM6.8 °F-2.2 °F67 %29.79 in10.0 miWNW (300°)15.0 mph18.4 mphOvercast
7:13 AM6.8 °F-2.2 °F67 %29.80 in10.0 miWNW (300°)11.5 mph25.3 mphOvercast
7:33 AM6.8 °F-4.0 °F61 %29.81 in10.0 miNW (310°)12.7 mphOvercast
7:54 AM6.8 °F-2.2 °F67 %29.83 in10.0 miNW (310°)12.7 mph19.6 mphOvercast
8:13 AM6.8 °F-4.0 °F61 %29.84 in10.0 miWNW (300°)13.8 mph19.6 mphOvercast
8:33 AM6.8 °F-4.0 °F61 %29.85 in10.0 miNW (310°)17.3 mph21.9 mphOvercast
8:54 AM5.0 °F-5.8 °F61 %29.86 in10.0 miNW (310°)11.5 mph23.0 mphOvercast
9:33 AM5.0 °F-4.0 °F66 %29.88 in10.0 miNW (310°)11.5 mph20.7 mphSnowLight Snow
9:54 AM5.0 °F-5.8 °F61 %29.89 in10.0 miWNW (300°)17.3 mphOvercast
10:13 AM6.8 °F-4.0 °F61 %29.90 in10.0 miNW (310°)11.5 mphOvercast
10:33 AM6.8 °F-4.0 °F61 %29.91 in10.0 miWNW (300°)17.3 mphOvercast
11:13 AM6.8 °F-4.0 °F61 %29.92 in10.0 miNW (310°)18.4 mph24.2 mphOvercast
11:34 AM6.8 °F-4.0 °F61 %29.93 in10.0 miWNW (300°)12.7 mphMostly Cloudy
11:54 AM6.8 °F-4.0 °F61 %29.93 in10.0 miNW (310°)13.8 mph18.4 mphMostly Cloudy
12:13 PM6.8 °F-2.2 °F67 %29.94 in7.0 miNW (310°)18.4 mphMostly Cloudy
12:34 PM8.6 °F-2.2 °F62 %29.94 in10.0 miWNW (290°)17.3 mph20.7 mphMostly Cloudy
12:53 PM6.8 °F-2.2 °F67 %29.95 in4.0 miWest (280°)12.7 mphSnowLight Snow
1:14 PM6.8 °F-2.2 °F67 %29.95 in3.0 miWNW (300°)17.3 mphSnowLight Snow
1:34 PM6.8 °F-2.2 °F67 %29.96 in10.0 miNW (310°)15.0 mphMostly Cloudy
1:53 PM8.6 °F-2.2 °F62 %29.96 in10.0 miWNW (300°)15.0 mphScattered Clouds
2:14 PM8.6 °F-2.2 °F62 %29.97 in10.0 miWNW (300°)12.7 mphMostly Cloudy
2:34 PM8.6 °F-4.0 °F57 %29.97 in10.0 miNW (310°)17.3 mphMostly Cloudy
2:53 PM8.6 °F-5.8 °F52 %29.98 in10.0 miWNW (300°)16.1 mphScattered Clouds
3:14 PM8.6 °F-5.8 °F52 %29.99 in10.0 miNW (310°)15.0 mph23.0 mphScattered Clouds
3:33 PM8.6 °F-4.0 °F57 %30.00 in10.0 miWNW (300°)19.6 mphScattered Clouds
3:53 PM8.6 °F-4.0 °F57 %30.01 in10.0 miWNW (300°)11.5 mphScattered Clouds
4:14 PM6.8 °F-4.0 °F61 %30.02 in10.0 miWNW (290°)17.3 mphMostly Cloudy
4:33 PM6.8 °F-5.8 °F56 %30.03 in10.0 miNW (310°)18.4 mphScattered Clouds
4:53 PM6.8 °F-5.8 °F56 %30.03 in10.0 miWNW (290°)17.3 mph24.2 mphScattered Clouds
5:14 PM6.8 °F-5.8 °F56 %30.04 in10.0 miWNW (300°)19.6 mph23.0 mphClear
5:33 PM6.8 °F-5.8 °F56 %30.06 in10.0 miWNW (300°)17.3 mphClear
6:13 PM5.0 °F-7.6 °F56 %30.07 in10.0 miWNW (290°)16.1 mph24.2 mphClear
6:33 PM5.0 °F-7.6 °F56 %30.08 in10.0 miWNW (290°)15.0 mph20.7 mphClear
6:54 PM3.2 °F-7.6 °F61 %30.09 in10.0 miWNW (290°)13.8 mphClear
7:13 PM3.2 °F-7.6 °F61 %30.09 in10.0 miWNW (290°)16.1 mph23.0 mphClear
7:33 PM3.2 °F-7.6 °F61 %30.10 in10.0 miWest (270°)9.2 mphClear
7:54 PM3.2 °F-7.6 °F61 %30.11 in10.0 miWest (270°)17.3 mphScattered Clouds
8:13 PM1.4 °F-7.6 °F66 %30.12 in10.0 miWest (270°)11.5 mph16.1 mphScattered Clouds
8:33 PM1.4 °F-7.6 °F66 %30.12 in10.0 miWest (270°)16.1 mphScattered Clouds
8:54 PM-0.4 °F-9.4 °F66 %30.13 in10.0 miWest (270°)16.1 mph23.0 mphClear
9:13 PM-0.4 °F-9.4 °F66 %30.14 in10.0 miWNW (290°)16.1 mphClear
9:34 PM-0.4 °F-11.2 °F60 %30.15 in10.0 miWest (280°)17.3 mph23.0 mphClear
9:53 PM-2.2 °F-11.2 °F66 %30.16 in10.0 miWest (270°)16.1 mphClear
10:13 PM-2.2 °F-11.2 °F66 %30.16 in10.0 miWest (270°)15.0 mphClear
10:33 PM-4.0 °F-14.8 °F60 %30.17 in10.0 miWest (280°)15.0 mphClear
10:54 PM-4.0 °F-14.8 °F60 %30.17 in10.0 miWNW (290°)19.6 mphClear
11:13 PM-5.8 °F-14.8 °F65 %30.18 in10.0 miWest (280°)15.0 mph19.6 mphClear
11:33 PM-5.8 °F-14.8 °F65 %30.19 in10.0 miWest (280°)12.7 mphClear
11:54 PM-5.8 °F-16.6 °F60 %30.20 in10.0 miWest (280°)12.7 mphClear
Hourly data recorded from KDYT, located miles away from Brule, Wisconsin







STORIES FROM OUR PARTNERS